Time,TemperatureF,DewpointF,PressureIn,WindDirection,WindDirectionDegrees,WindSpeedMPH,WindSpeedGustMPH,Humidity,HourlyPrecipIn,Conditions,Clouds,dailyrainin,SoftwareType,DateUTC
2013-03-06 00:00:00,42.3,41.0,29.58,SSE,167,0.0,2.0,96,0.00,,,0.00,weatherlink.com 1.10,2013-03-06 05:00:00,
2013-03-06 00:15:00,42.3,41.0,29.56,SSW,198,0.0,2.0,96,0.00,,,0.00,weatherlink.com 1.10,2013-03-06 05:15:00,
2013-03-06 00:30:00,42.4,41.0,29.55,South,184,1.0,3.0,96,0.00,,,0.00,weatherlink.com 1.10,2013-03-06 05:30:00,
2013-03-06 00:45:00,42.5,42.0,29.54,SSW,204,1.0,1.0,96,0.00,,,0.00,weatherlink.com 1.10,2013-03-06 05:45:00,
2013-03-06 01:00:00,42.6,42.0,29.53,ESE,117,0.0,1.0,96,0.00,,,0.00,weatherlink.com 1.10,2013-03-06 06:00:00,
2013-03-06 01:15:00,42.7,42.0,29.53,NE,41,0.0,3.0,96,0.00,,,0.00,weatherlink.com 1.10,2013-03-06 06:15:00,
2013-03-06 01:30:00,42.9,42.0,29.51,SW,224,0.0,2.0,96,0.00,,,0.00,weatherlink.com 1.10,2013-03-06 06:30:00,
2013-03-06 01:45:00,43.1,42.0,29.50,SE,124,0.0,1.0,97,0.00,,,0.00,weatherlink.com 1.10,2013-03-06 06:45:00,
2013-03-06 02:00:00,43.5,43.0,29.50,WSW,255,3.0,6.0,97,0.00,,,0.00,weatherlink.com 1.10,2013-03-06 07:00:00,
2013-03-06 02:15:00,44.2,43.0,29.50,WNW,283,0.0,5.0,97,0.00,,,0.00,weatherlink.com 1.10,2013-03-06 07:15:00,
2013-03-06 02:30:00,44.5,44.0,29.50,WNW,299,2.0,2.0,97,0.00,,,0.00,weatherlink.com 1.10,2013-03-06 07:30:00,
2013-03-06 02:45:00,43.5,43.0,29.51,NW,322,2.0,5.0,96,0.00,,,0.00,weatherlink.com 1.10,2013-03-06 07:45:00,
2013-03-06 03:00:00,41.5,41.0,29.52,SW,232,1.0,9.0,96,0.00,,,0.00,weatherlink.com 1.10,2013-03-06 08:00:00,
2013-03-06 03:15:00,40.6,40.0,29.52,NW,316,3.0,5.0,96,0.00,,,0.00,weatherlink.com 1.10,2013-03-06 08:15:00,
2013-03-06 03:30:00,40.2,39.0,29.53,WNW,291,5.0,8.0,96,0.00,,,0.00,weatherlink.com 1.10,2013-03-06 08:30:00,
2013-03-06 03:45:00,39.7,39.0,29.53,WNW,302,3.0,5.0,96,0.00,,,0.00,weatherlink.com 1.10,2013-03-06 08:45:00,
2013-03-06 04:00:00,39.7,39.0,29.54,NW,325,4.0,4.0,96,0.00,,,0.00,weatherlink.com 1.10,2013-03-06 09:00:00,
2013-03-06 04:15:00,39.4,38.0,29.54,NW,313,3.0,7.0,96,0.01,,,0.01,weatherlink.com 1.10,2013-03-06 09:15:00,
2013-03-06 04:30:00,39.3,38.0,29.55,WNW,293,1.0,6.0,96,0.01,,,0.01,weatherlink.com 1.10,2013-03-06 09:30:00,
2013-03-06 04:45:00,39.3,38.0,29.55,NW,307,1.0,6.0,96,0.01,,,0.01,weatherlink.com 1.10,2013-03-06 09:45:00,
2013-03-06 05:00:00,39.1,38.0,29.56,NW,308,3.0,6.0,96,0.01,,,0.01,weatherlink.com 1.10,2013-03-06 10:00:00,
2013-03-06 05:16:00,38.8,38.0,29.57,NW,309,7.0,10.0,95,0.00,,,0.01,weatherlink.com 1.10,2013-03-06 10:16:00,
2013-03-06 05:31:00,37.5,35.0,29.57,NW,316,4.0,9.0,92,0.00,,,0.01,weatherlink.com 1.10,2013-03-06 10:31:00,
2013-03-06 05:46:00,36.8,35.0,29.58,WNW,283,2.0,8.0,93,0.00,,,0.01,weatherlink.com 1.10,2013-03-06 10:46:00,
2013-03-06 06:01:00,36.5,35.0,29.59,NW,321,3.0,10.0,93,0.00,,,0.01,weatherlink.com 1.10,2013-03-06 11:01:00,
2013-03-06 06:16:00,36.6,35.0,29.60,WNW,302,4.0,11.0,92,0.00,,,0.01,weatherlink.com 1.10,2013-03-06 11:16:00,
2013-03-06 06:31:00,36.6,35.0,29.60,NW,312,4.0,8.0,92,0.00,,,0.01,weatherlink.com 1.10,2013-03-06 11:31:00,
2013-03-06 06:46:00,36.8,35.0,29.60,WNW,283,4.0,9.0,91,0.00,,,0.01,weatherlink.com 1.10,2013-03-06 11:46:00,
2013-03-06 07:01:00,37.1,35.0,29.60,West,270,4.0,10.0,90,0.00,,,0.01,weatherlink.com 1.10,2013-03-06 12:01:00,
2013-03-06 07:16:00,37.3,35.0,29.61,WNW,295,4.0,6.0,90,0.00,,,0.01,weatherlink.com 1.10,2013-03-06 12:16:00,
2013-03-06 07:31:00,37.6,35.0,29.61,WNW,284,1.0,9.0,89,0.00,,,0.01,weatherlink.com 1.10,2013-03-06 12:31:00,
2013-03-06 07:46:00,37.9,34.0,29.62,North,360,2.0,8.0,87,0.00,,,0.01,weatherlink.com 1.10,2013-03-06 12:46:00,
2013-03-06 08:01:00,38.1,34.0,29.63,NW,308,2.0,9.0,85,0.00,,,0.01,weatherlink.com 1.10,2013-03-06 13:01:00,
2013-03-06 08:16:00,38.2,34.0,29.63,NW,321,3.0,8.0,86,0.00,,,0.01,weatherlink.com 1.10,2013-03-06 13:16:00,
2013-03-06 08:31:00,38.3,34.0,29.63,NNW,333,7.0,15.0,83,0.00,,,0.01,weatherlink.com 1.10,2013-03-06 13:31:00,
2013-03-06 08:46:00,38.8,33.0,29.64,WNW,291,2.0,14.0,79,0.00,,,0.01,weatherlink.com 1.10,2013-03-06 13:46:00,
2013-03-06 09:01:00,38.9,33.0,29.63,NNW,330,9.0,11.0,78,0.00,,,0.01,weatherlink.com 1.10,2013-03-06 14:01:00,
2013-03-06 09:16:00,39.5,31.0,29.64,NW,304,4.0,13.0,71,0.00,,,0.01,weatherlink.com 1.10,2013-03-06 14:16:00,
2013-03-06 09:31:00,39.3,32.0,29.64,WNW,290,1.0,11.0,75,0.00,,,0.01,weatherlink.com 1.10,2013-03-06 14:31:00,
2013-03-06 09:46:00,39.6,31.0,29.64,WNW,283,3.0,11.0,71,0.00,,,0.01,weatherlink.com 1.10,2013-03-06 14:46:00,
2013-03-06 10:01:00,40.5,31.0,29.64,WNW,286,3.0,15.0,69,0.00,,,0.01,weatherlink.com 1.10,2013-03-06 15:01:00,
2013-03-06 10:16:00,41.3,30.0,29.64,NW,321,2.0,15.0,65,0.00,,,0.01,weatherlink.com 1.10,2013-03-06 15:16:00,
2013-03-06 10:31:00,41.4,30.0,29.64,West,270,3.0,14.0,64,0.00,,,0.01,weatherlink.com 1.10,2013-03-06 15:31:00,
2013-03-06 10:46:00,41.4,30.0,29.64,West,280,2.0,11.0,64,0.00,,,0.01,weatherlink.com 1.10,2013-03-06 15:46:00,
2013-03-06 11:01:00,41.1,30.0,29.65,NW,323,10.0,14.0,64,0.00,,,0.01,weatherlink.com 1.10,2013-03-06 16:01:00,
2013-03-06 11:16:00,41.4,29.0,29.66,NW,312,9.0,16.0,62,0.00,,,0.01,weatherlink.com 1.10,2013-03-06 16:16:00,
2013-03-06 11:31:00,41.3,29.0,29.67,West,269,4.0,15.0,63,0.00,,,0.01,weatherlink.com 1.10,2013-03-06 16:31:00,
2013-03-06 11:47:00,41.0,30.0,29.68,WNW,294,15.0,16.0,65,0.00,,,0.01,weatherlink.com 1.10,2013-03-06 16:47:00,
2013-03-06 12:01:00,41.1,30.0,29.67,WNW,298,4.0,14.0,64,0.00,,,0.01,weatherlink.com 1.10,2013-03-06 17:01:00,
2013-03-06 12:17:00,41.9,29.0,29.67,SSW,212,3.0,16.0,60,0.00,,,0.01,weatherlink.com 1.10,2013-03-06 17:17:00,
2013-03-06 12:31:00,42.3,28.0,29.66,NNW,333,3.0,19.0,58,0.00,,,0.01,weatherlink.com 1.10,2013-03-06 17:31:00,
2013-03-06 12:46:00,42.6,29.0,29.67,West,280,2.0,15.0,60,0.00,,,0.01,weatherlink.com 1.10,2013-03-06 17:46:00,
2013-03-06 13:01:00,42.9,29.0,29.68,WNW,300,6.0,15.0,58,0.00,,,0.01,weatherlink.com 1.10,2013-03-06 18:01:00,
2013-03-06 13:17:00,43.0,29.0,29.68,NW,321,6.0,18.0,59,0.00,,,0.01,weatherlink.com 1.10,2013-03-06 18:17:00,
2013-03-06 13:31:00,43.5,29.0,29.68,WNW,300,11.0,21.0,58,0.00,,,0.01,weatherlink.com 1.10,2013-03-06 18:31:00,
2013-03-06 13:46:00,43.8,30.0,29.69,West,259,10.0,17.0,58,0.00,,,0.01,weatherlink.com 1.10,2013-03-06 18:46:00,
2013-03-06 14:01:00,44.5,31.0,29.70,NW,313,5.0,16.0,59,0.00,,,0.01,weatherlink.com 1.10,2013-03-06 19:01:00,
2013-03-06 14:17:00,44.3,31.0,29.70,WNW,302,3.0,13.0,61,0.00,,,0.01,weatherlink.com 1.10,2013-03-06 19:17:00,
2013-03-06 14:32:00,44.6,32.0,29.71,NW,321,4.0,11.0,61,0.00,,,0.01,weatherlink.com 1.10,2013-03-06 19:32:00,
2013-03-06 14:47:00,44.7,33.0,29.71,WNW,303,3.0,9.0,64,0.00,,,0.01,weatherlink.com 1.10,2013-03-06 19:47:00,
2013-03-06 15:02:00,45.4,33.0,29.72,NNW,335,1.0,10.0,62,0.00,,,0.01,weatherlink.com 1.10,2013-03-06 20:02:00,
2013-03-06 15:17:00,45.6,34.0,29.73,WNW,302,7.0,12.0,63,0.00,,,0.01,weatherlink.com 1.10,2013-03-06 20:17:00,
2013-03-06 15:32:00,45.5,33.0,29.75,WNW,287,5.0,8.0,63,0.00,,,0.01,weatherlink.com 1.10,2013-03-06 20:32:00,
2013-03-06 15:47:00,45.5,33.0,29.76,NW,308,4.0,11.0,63,0.00,,,0.01,weatherlink.com 1.10,2013-03-06 20:47:00,
2013-03-06 16:02:00,45.6,34.0,29.77,WNW,287,5.0,9.0,64,0.00,,,0.01,weatherlink.com 1.10,2013-03-06 21:02:00,
2013-03-06 16:17:00,45.6,34.0,29.79,NW,321,1.0,8.0,64,0.00,,,0.01,weatherlink.com 1.10,2013-03-06 21:17:00,
2013-03-06 16:32:00,45.6,34.0,29.80,WNW,294,4.0,11.0,64,0.00,,,0.01,weatherlink.com 1.10,2013-03-06 21:32:00,
2013-03-06 16:47:00,45.6,35.0,29.82,NW,321,2.0,12.0,66,0.00,,,0.01,weatherlink.com 1.10,2013-03-06 21:47:00,
2013-03-06 17:02:00,44.5,36.0,29.84,NW,319,4.0,10.0,72,0.00,,,0.01,weatherlink.com 1.10,2013-03-06 22:02:00,
2013-03-06 17:17:00,43.8,36.0,29.85,NNW,335,3.0,8.0,74,0.00,,,0.01,weatherlink.com 1.10,2013-03-06 22:17:00,
2013-03-06 17:32:00,43.9,36.0,29.86,WNW,302,2.0,7.0,73,0.00,,,0.01,weatherlink.com 1.10,2013-03-06 22:32:00,
2013-03-06 17:47:00,43.7,36.0,29.88,North,350,5.0,7.0,74,0.00,,,0.01,weatherlink.com 1.10,2013-03-06 22:47:00,
2013-03-06 18:02:00,43.4,36.0,29.88,WNW,302,2.0,7.0,75,0.00,,,0.01,weatherlink.com 1.10,2013-03-06 23:02:00,
2013-03-06 18:17:00,43.3,36.0,29.90,WNW,290,2.0,5.0,76,0.00,,,0.01,weatherlink.com 1.10,2013-03-06 23:17:00,
2013-03-06 18:32:00,43.3,37.0,29.91,WNW,299,3.0,4.0,78,0.00,,,0.01,weatherlink.com 1.10,2013-03-06 23:32:00,
2013-03-06 18:47:00,43.1,37.0,29.92,NW,321,2.0,4.0,78,0.00,,,0.01,weatherlink.com 1.10,2013-03-06 23:47:00,
2013-03-06 19:02:00,43.0,37.0,29.93,North,349,1.0,11.0,78,0.00,,,0.01,weatherlink.com 1.10,2013-03-07 00:02:00,
2013-03-06 19:17:00,43.0,37.0,29.94,SW,231,0.0,3.0,78,0.00,,,0.01,weatherlink.com 1.10,2013-03-07 00:17:00,
2013-03-06 19:32:00,43.0,36.0,29.95,NNW,327,0.0,4.0,77,0.00,,,0.01,weatherlink.com 1.10,2013-03-07 00:32:00,
2013-03-06 19:47:00,43.4,35.0,29.96,SSE,167,1.0,3.0,71,0.00,,,0.01,weatherlink.com 1.10,2013-03-07 00:47:00,
2013-03-06 20:02:00,43.7,34.0,29.96,NNW,343,0.0,6.0,69,0.00,,,0.01,weatherlink.com 1.10,2013-03-07 01:02:00,
2013-03-06 20:17:00,43.7,34.0,29.97,NNE,19,0.0,3.0,69,0.00,,,0.01,weatherlink.com 1.10,2013-03-07 01:17:00,
2013-03-06 20:32:00,43.5,35.0,29.98,NE,51,3.0,6.0,72,0.00,,,0.01,weatherlink.com 1.10,2013-03-07 01:32:00,
2013-03-06 20:47:00,43.4,35.0,29.99,NE,53,5.0,11.0,72,0.00,,,0.01,weatherlink.com 1.10,2013-03-07 01:47:00,
2013-03-06 21:02:00,43.1,34.0,30.00,NNW,344,2.0,7.0,70,0.00,,,0.01,weatherlink.com 1.10,2013-03-07 02:02:00,
2013-03-06 21:17:00,42.8,34.0,30.00,WNW,288,0.0,5.0,70,0.00,,,0.01,weatherlink.com 1.10,2013-03-07 02:17:00,
2013-03-06 21:32:00,42.5,34.0,30.00,WNW,294,1.0,3.0,71,0.00,,,0.01,weatherlink.com 1.10,2013-03-07 02:32:00,
2013-03-06 21:48:00,42.4,33.0,30.01,West,274,1.0,5.0,70,0.00,,,0.01,weatherlink.com 1.10,2013-03-07 02:48:00,
2013-03-06 22:03:00,41.9,33.0,30.01,SSE,153,2.0,4.0,70,0.00,,,0.01,weatherlink.com 1.10,2013-03-07 03:03:00,
2013-03-06 22:18:00,41.0,32.0,30.01,NW,308,1.0,4.0,70,0.00,,,0.01,weatherlink.com 1.10,2013-03-07 03:18:00,
2013-03-06 22:33:00,40.5,32.0,30.02,NNW,340,0.0,5.0,72,0.00,,,0.01,weatherlink.com 1.10,2013-03-07 03:33:00,
2013-03-06 22:48:00,40.0,31.0,30.02,WNW,298,0.0,6.0,71,0.00,,,0.01,weatherlink.com 1.10,2013-03-07 03:48:00,
2013-03-06 23:03:00,39.3,31.0,30.02,NW,307,1.0,3.0,73,0.00,,,0.01,weatherlink.com 1.10,2013-03-07 04:03:00,
2013-03-06 23:18:00,39.1,31.0,30.02,West,281,1.0,4.0,73,0.00,,,0.01,weatherlink.com 1.10,2013-03-07 04:18:00,
2013-03-06 23:33:00,38.8,31.0,30.02,NNW,331,2.0,3.0,73,0.00,,,0.01,weatherlink.com 1.10,2013-03-07 04:33:00,
2013-03-06 23:48:00,38.6,31.0,30.02,WNW,296,1.0,4.0,74,0.00,,,0.01,weatherlink.com 1.10,2013-03-07 04:48:00,